| time (UTC) | temp C | wind direction | speed KPH | gust KPH | rain 1hr cm | rain 24hr cm | rain mn cm | humidity % | barometer mb |
| 20260502180543 | 30 | 108 | 11.3 | 24.1 | 0.00 | 0.00 | 0.00 | 25 | 1014.1 |
| 20260502164043 | 28 | 74 | 11.3 | 22.5 | 0.00 | 0.00 | 0.00 | 28 | 1014.3 |
| 20260502163543 | 28 | 98 | 12.9 | 25.7 | 0.00 | 0.00 | 0.00 | 28 | 1014.3 |
| 20260502163102 | 28 | 150 | 14.5 | 25.7 | 0.00 | 0.00 | 0.00 | 28 | 1014.4 |
| 20260502162540 | 28 | 75 | 9.7 | 22.5 | 0.00 | 0.00 | 0.00 | 28 | 1014.3 |
| 20260502162039 | 28 | 126 | 8.0 | 22.5 | 0.00 | 0.00 | 0.00 | 26 | 1014.4 |
| 20260502161555 | 28 | 124 | 8.0 | 19.3 | 0.00 | 0.00 | 0.00 | 25 | 1014.4 |
| 20260502161042 | 28 | 122 | 6.4 | 16.1 | 0.00 | 0.00 | 0.00 | 25 | 1014.5 |
| 20260502160537 | 28 | 108 | 3.2 | 12.9 | 0.00 | 0.00 | 0.00 | 24 | 1014.5 |
| 20260502152042 | 26 | 113 | 3.2 | 11.3 | 0.00 | 0.00 | 0.00 | 24 | 1014.2 |
| 20260502151553 | 26 | 85 | 1.6 | 14.5 | 0.00 | 0.00 | 0.00 | 24 | 1014.2 |
| 20260502151041 | 26 | 129 | 4.8 | 14.5 | 0.00 | 0.00 | 0.00 | 25 | 1014.1 |
| 20260502150541 | 26 | 0 | 1.6 | 11.3 | 0.00 | 0.00 | 0.00 | 25 | 1014.0 |
| 20260502150104 | 26 | 116 | 1.6 | 11.3 | 0.00 | 0.00 | 0.00 | 26 | 1013.9 |
| 20260502130541 | 21 | 0 | 0.0 | 6.4 | 0.00 | 0.00 | 0.00 | 28 | 1012.5 |
| 20260502130108 | 21 | 20 | 0.0 | 3.2 | 0.00 | 0.00 | 0.00 | 29 | 1012.6 |
| 20260502123543 | 21 | 0 | 0.0 | 0.0 | 0.00 | 0.00 | 0.00 | 29 | 1012.1 |
| 20260502123059 | 21 | 0 | 0.0 | 0.0 | 0.00 | 0.00 | 0.00 | 28 | 1012.1 |
| 20260502122542 | 21 | 0 | 0.0 | 0.0 | 0.00 | 0.00 | 0.00 | 28 | 1012.0 |
| 20260502122041 | 21 | 0 | 0.0 | 0.0 | 0.00 | 0.00 | 0.00 | 28 | 1012.0 |
| 20260502121548 | 21 | 0 | 0.0 | 1.6 | 0.00 | 0.00 | 0.00 | 27 | 1012.0 |
| 20260502121041 | 21 | 0 | 0.0 | 1.6 | 0.00 | 0.00 | 0.00 | 27 | 1012.0 |
| 20260502120544 | 21 | 0 | 0.0 | 0.0 | 0.00 | 0.00 | 0.00 | 27 | 1011.9 |
| 20260502115543 | 21 | 0 | 0.0 | 1.6 | 0.00 | 0.00 | 0.00 | 27 | 1011.9 |
| 20260502115040 | 21 | 0 | 0.0 | 1.6 | 0.00 | 0.00 | 0.00 | 27 | 1011.9 |
| 20260502114553 | 21 | 0 | 0.0 | 1.6 | 0.00 | 0.00 | 0.00 | 28 | 1011.9 |
| 20260502114040 | 21 | 0 | 0.0 | 0.0 | 0.00 | 0.00 | 0.00 | 28 | 1011.9 |
| 20260502113539 | 21 | 0 | 0.0 | 1.6 | 0.00 | 0.00 | 0.00 | 28 | 1011.8 |
| 20260502113050 | 21 | 0 | 0.0 | 1.6 | 0.00 | 0.00 | 0.00 | 28 | 1011.9 |
| 20260502112541 | 21 | 0 | 0.0 | 1.6 | 0.00 | 0.00 | 0.00 | 28 | 1011.8 |
| 20260502112042 | 21 | 0 | 0.0 | 1.6 | 0.00 | 0.00 | 0.00 | 28 | 1011.8 |
| 20260502111554 | 21 | 0 | 0.0 | 1.6 | 0.00 | 0.00 | 0.00 | 28 | 1011.7 |
| 20260502111041 | 21 | 0 | 0.0 | 1.6 | 0.00 | 0.00 | 0.00 | 28 | 1011.8 |
| 20260502110543 | 21 | 0 | 0.0 | 1.6 | 0.00 | 0.00 | 0.00 | 27 | 1011.7 |
| 20260502110052 | 21 | 0 | 0.0 | 1.6 | 0.00 | 0.00 | 0.00 | 27 | 1011.8 |
| 20260502105541 | 21 | 0 | 0.0 | 0.0 | 0.00 | 0.00 | 0.00 | 28 | 1011.8 |
| 20260502105044 | 21 | 0 | 0.0 | 1.6 | 0.00 | 0.00 | 0.00 | 27 | 1011.7 |
| 20260502104554 | 21 | 0 | 0.0 | 1.6 | 0.00 | 0.00 | 0.00 | 27 | 1011.6 |
| 20260502104040 | 21 | 0 | 0.0 | 1.6 | 0.00 | 0.00 | 0.00 | 26 | 1011.8 |
| 20260502103541 | 22 | 0 | 0.0 | 0.0 | 0.00 | 0.00 | 0.00 | 26 | 1011.6 |
| 20260502103054 | 22 | 0 | 0.0 | 1.6 | 0.00 | 0.00 | 0.00 | 26 | 1011.5 |
| 20260502102540 | 22 | 0 | 0.0 | 1.6 | 0.00 | 0.00 | 0.00 | 26 | 1011.4 |
| 20260502102044 | 22 | 0 | 0.0 | 3.2 | 0.00 | 0.00 | 0.00 | 26 | 1011.4 |
| 20260502101553 | 22 | 0 | 0.0 | 4.8 | 0.00 | 0.00 | 0.00 | 26 | 1011.3 |
| 20260502101045 | 22 | 0 | 0.0 | 4.8 | 0.00 | 0.00 | 0.00 | 26 | 1011.2 |
| 20260502100543 | 22 | 0 | 0.0 | 3.2 | 0.00 | 0.00 | 0.00 | 26 | 1011.3 |
| 20260502091043 | 22 | 11 | 0.0 | 1.6 | 0.00 | 0.00 | 0.00 | 25 | 1011.2 |
| 20260502090542 | 22 | 0 | 0.0 | 1.6 | 0.00 | 0.00 | 0.00 | 25 | 1011.2 |
| 20260502080105 | 23 | 360 | 1.6 | 6.4 | 0.00 | 0.00 | 0.00 | 22 | 1010.8 |
| 20260502071042 | 21 | 0 | 0.0 | 0.0 | 0.00 | 0.00 | 0.00 | 28 | 1010.3 |
| 20260502070541 | 22 | 0 | 0.0 | 0.0 | 0.00 | 0.00 | 0.00 | 28 | 1010.2 |
| 20260502070057 | 22 | 0 | 0.0 | 0.0 | 0.00 | 0.00 | 0.00 | 27 | 1010.4 |
| 20260502065544 | 22 | 0 | 0.0 | 0.0 | 0.00 | 0.00 | 0.00 | 27 | 1010.5 |
| 20260502065042 | 22 | 0 | 0.0 | 0.0 | 0.00 | 0.00 | 0.00 | 26 | 1010.1 |
| 20260502064552 | 23 | 0 | 0.0 | 0.0 | 0.00 | 0.00 | 0.00 | 26 | 1010.2 |
| 20260502064041 | 23 | 0 | 0.0 | 0.0 | 0.00 | 0.00 | 0.00 | 26 | 1010.2 |
| 20260502063541 | 23 | 0 | 0.0 | 0.0 | 0.00 | 0.00 | 0.00 | 25 | 1010.3 |
| 20260502063109 | 23 | 0 | 0.0 | 1.6 | 0.00 | 0.00 | 0.00 | 25 | 1010.2 |
| 20260502062541 | 23 | 0 | 0.0 | 3.2 | 0.00 | 0.00 | 0.00 | 25 | 1010.3 |
| 20260502062040 | 23 | 0 | 0.0 | 3.2 | 0.00 | 0.00 | 0.00 | 25 | 1010.1 |
| 20260502061552 | 23 | 203 | 0.0 | 3.2 | 0.00 | 0.00 | 0.00 | 25 | 1010.1 |
| 20260502061041 | 23 | 0 | 0.0 | 1.6 | 0.00 | 0.00 | 0.00 | 25 | 1010.0 |
| 20260502060541 | 23 | 226 | 0.0 | 1.6 | 0.00 | 0.00 | 0.00 | 24 | 1010.0 |
| 20260502060057 | 23 | 0 | 0.0 | 1.6 | 0.00 | 0.00 | 0.00 | 24 | 1010.0 |
| 20260502055542 | 23 | 0 | 0.0 | 0.0 | 0.00 | 0.00 | 0.00 | 24 | 1010.0 |
| 20260502055041 | 23 | 0 | 0.0 | 0.0 | 0.00 | 0.00 | 0.00 | 24 | 1010.1 |
| 20260502054550 | 24 | 0 | 0.0 | 1.6 | 0.00 | 0.00 | 0.00 | 23 | 1010.1 |
| 20260502054041 | 24 | 0 | 0.0 | 1.6 | 0.00 | 0.00 | 0.00 | 23 | 1009.9 |
| 20260502053541 | 24 | 0 | 0.0 | 4.8 | 0.00 | 0.00 | 0.00 | 22 | 1010.0 |
| 20260502053055 | 24 | 0 | 1.6 | 4.8 | 0.00 | 0.00 | 0.00 | 23 | 1010.0 |
| 20260502052541 | 25 | 246 | 1.6 | 4.8 | 0.00 | 0.00 | 0.00 | 23 | 1010.1 |
| 20260502052045 | 25 | 291 | 0.0 | 3.2 | 0.00 | 0.00 | 0.00 | 23 | 1010.0 |
| 20260502051548 | 25 | 270 | 0.0 | 1.6 | 0.00 | 0.00 | 0.00 | 22 | 1009.9 |
| 20260502051041 | 25 | 0 | 0.0 | 1.6 | 0.00 | 0.00 | 0.00 | 21 | 1009.9 |
| 20260502050541 | 26 | 0 | 0.0 | 1.6 | 0.00 | 0.00 | 0.00 | 20 | 1009.8 |
| 20260502050057 | 26 | 0 | 0.0 | 3.2 | 0.00 | 0.00 | 0.00 | 20 | 1009.7 |
| 20260502045541 | 26 | 274 | 0.0 | 3.2 | 0.00 | 0.00 | 0.00 | 20 | 1009.6 |
| 20260502045041 | 26 | 0 | 0.0 | 4.8 | 0.00 | 0.00 | 0.00 | 19 | 1009.7 |
| 20260502044549 | 26 | 0 | 0.0 | 4.8 | 0.00 | 0.00 | 0.00 | 20 | 1009.6 |
| 20260502044040 | 26 | 0 | 0.0 | 1.6 | 0.00 | 0.00 | 0.00 | 20 | 1009.5 |
| 20260502043540 | 26 | 0 | 0.0 | 0.0 | 0.00 | 0.00 | 0.00 | 20 | 1009.5 |
| 20260502043054 | 26 | 0 | 0.0 | 0.0 | 0.00 | 0.00 | 0.00 | 20 | 1009.4 |
| 20260502042541 | 26 | 0 | 0.0 | 0.0 | 0.00 | 0.00 | 0.00 | 20 | 1009.4 |
| 20260502042043 | 26 | 0 | 0.0 | 0.0 | 0.00 | 0.00 | 0.00 | 20 | 1009.4 |
| 20260502041554 | 26 | 0 | 0.0 | 0.0 | 0.00 | 0.00 | 0.00 | 21 | 1009.3 |
| 20260502041041 | 26 | 0 | 0.0 | 0.0 | 0.00 | 0.00 | 0.00 | 21 | 1009.1 |
| 20260502040541 | 26 | 0 | 0.0 | 0.0 | 0.00 | 0.00 | 0.00 | 21 | 1009.2 |
| 20260502040050 | 26 | 0 | 0.0 | 0.0 | 0.00 | 0.00 | 0.00 | 21 | 1009.1 |
| 20260502035541 | 26 | 0 | 0.0 | 0.0 | 0.00 | 0.00 | 0.00 | 21 | 1009.0 |
| 20260502035041 | 26 | 0 | 0.0 | 0.0 | 0.00 | 0.00 | 0.00 | 21 | 1009.1 |
| 20260502034555 | 27 | 0 | 0.0 | 0.0 | 0.00 | 0.00 | 0.00 | 20 | 1009.0 |
| 20260502034041 | 27 | 0 | 0.0 | 0.0 | 0.00 | 0.00 | 0.00 | 20 | 1008.9 |
| 20260502033542 | 27 | 0 | 0.0 | 0.0 | 0.00 | 0.00 | 0.00 | 19 | 1008.9 |
| 20260502033049 | 27 | 0 | 0.0 | 0.0 | 0.00 | 0.00 | 0.00 | 19 | 1008.8 |
| 20260502032541 | 27 | 0 | 0.0 | 0.0 | 0.00 | 0.00 | 0.00 | 19 | 1008.8 |
| 20260502032041 | 28 | 0 | 0.0 | 0.0 | 0.00 | 0.00 | 0.00 | 19 | 1008.8 |
| 20260502031553 | 28 | 0 | 0.0 | 0.0 | 0.00 | 0.00 | 0.00 | 19 | 1008.8 |
| 20260502031042 | 28 | 0 | 0.0 | 1.6 | 0.00 | 0.00 | 0.00 | 18 | 1008.7 |
| 20260502030542 | 28 | 0 | 0.0 | 1.6 | 0.00 | 0.00 | 0.00 | 18 | 1008.6 |
| 20260502030052 | 28 | 0 | 0.0 | 1.6 | 0.00 | 0.00 | 0.00 | 18 | 1008.6 |
| 20260502025541 | 28 | 0 | 0.0 | 3.2 | 0.00 | 0.00 | 0.00 | 18 | 1008.5 |
| 20260502025044 | 28 | 0 | 0.0 | 3.2 | 0.00 | 0.00 | 0.00 | 18 | 1008.5 |
| 20260502024552 | 28 | 0 | 0.0 | 3.2 | 0.00 | 0.00 | 0.00 | 18 | 1008.5 |
| 20260502024041 | 29 | 0 | 0.0 | 1.6 | 0.00 | 0.00 | 0.00 | 17 | 1008.5 |
| 20260502023542 | 29 | 0 | 0.0 | 1.6 | 0.00 | 0.00 | 0.00 | 17 | 1008.3 |
| 20260502023050 | 29 | 0 | 0.0 | 1.6 | 0.00 | 0.00 | 0.00 | 17 | 1008.3 |
| 20260502022542 | 29 | 0 | 0.0 | 1.6 | 0.00 | 0.00 | 0.00 | 17 | 1008.3 |
| 20260502022041 | 30 | 0 | 0.0 | 4.8 | 0.00 | 0.00 | 0.00 | 17 | 1008.2 |
| 20260502021549 | 30 | 0 | 0.0 | 4.8 | 0.00 | 0.00 | 0.00 | 17 | 1008.2 |
| 20260502021041 | 30 | 207 | 0.0 | 4.8 | 0.00 | 0.00 | 0.00 | 17 | 1008.0 |
| 20260502020541 | 30 | 0 | 0.0 | 4.8 | 0.00 | 0.00 | 0.00 | 17 | 1008.1 |
| 20260502020052 | 30 | 272 | 0.0 | 6.4 | 0.00 | 0.00 | 0.00 | 17 | 1008.2 |
| 20260502015541 | 30 | 250 | 0.0 | 9.7 | 0.00 | 0.00 | 0.00 | 18 | 1008.1 |
| 20260502015042 | 31 | 260 | 1.6 | 19.3 | 0.00 | 0.00 | 0.00 | 18 | 1008.0 |
| 20260502014553 | 31 | 286 | 4.8 | 19.3 | 0.00 | 0.00 | 0.00 | 18 | 1008.1 |
| 20260502014040 | 31 | 276 | 8.0 | 17.7 | 0.00 | 0.00 | 0.00 | 17 | 1008.1 |
| 20260502013543 | 31 | 247 | 6.4 | 17.7 | 0.00 | 0.00 | 0.00 | 17 | 1008.0 |
| 20260502013050 | 31 | 236 | 6.4 | 16.1 | 0.00 | 0.00 | 0.00 | 17 | 1007.9 |
| 20260502012540 | 31 | 260 | 6.4 | 12.9 | 0.00 | 0.00 | 0.00 | 16 | 1007.9 |
| 20260502012042 | 32 | 230 | 3.2 | 9.7 | 0.00 | 0.00 | 0.00 | 17 | 1008.0 |
| 20260502011546 | 32 | 240 | 1.6 | 9.7 | 0.00 | 0.00 | 0.00 | 17 | 1007.9 |
| 20260502011038 | 32 | 257 | 3.2 | 6.4 | 0.00 | 0.00 | 0.00 | 16 | 1007.9 |
| 20260502010541 | 32 | 0 | 0.0 | 14.5 | 0.00 | 0.00 | 0.00 | 17 | 1008.0 |
| 20260502010051 | 32 | 223 | 1.6 | 14.5 | 0.00 | 0.00 | 0.00 | 17 | 1008.0 |
| 20260502005540 | 32 | 214 | 3.2 | 14.5 | 0.00 | 0.00 | 0.00 | 17 | 1008.0 |
| 20260502005040 | 32 | 222 | 4.8 | 14.5 | 0.00 | 0.00 | 0.00 | 17 | 1008.1 |
| 20260502004546 | 32 | 244 | 4.8 | 12.9 | 0.00 | 0.00 | 0.00 | 18 | 1008.1 |
| 20260502004042 | 32 | 233 | 6.4 | 12.9 | 0.00 | 0.00 | 0.00 | 18 | 1008.1 |
| 20260502003539 | 32 | 261 | 6.4 | 12.9 | 0.00 | 0.00 | 0.00 | 17 | 1008.0 |
| 20260502003045 | 32 | 195 | 4.8 | 14.5 | 0.00 | 0.00 | 0.00 | 18 | 1008.2 |
| 20260502002541 | 32 | 206 | 6.4 | 16.1 | 0.00 | 0.00 | 0.00 | 18 | 1008.1 |
| 20260502002043 | 32 | 214 | 8.0 | 16.1 | 0.00 | 0.00 | 0.00 | 18 | 1008.1 |
| 20260502001546 | 32 | 226 | 8.0 | 14.5 | 0.00 | 0.00 | 0.00 | 18 | 1008.3 |
| 20260502001042 | 32 | 220 | 3.2 | 12.9 | 0.00 | 0.00 | 0.00 | 18 | 1008.2 |
| 20260502000541 | 32 | 262 | 1.6 | 11.3 | 0.00 | 0.00 | 0.00 | 18 | 1008.3 |
| 20260502000058 | 32 | 288 | 3.2 | 11.3 | 0.00 | 0.00 | 0.00 | 18 | 1008.2 |
| 20260501235541 | 32 | 217 | 1.6 | 12.9 | 0.00 | 0.00 | 0.00 | 18 | 1008.3 |
| 20260501235041 | 32 | 219 | 3.2 | 12.9 | 0.00 | 0.00 | 0.00 | 18 | 1008.3 |
| 20260501234550 | 32 | 282 | 4.8 | 14.5 | 0.00 | 0.00 | 0.00 | 19 | 1008.3 |
| 20260501234041 | 32 | 142 | 4.8 | 14.5 | 0.00 | 0.00 | 0.00 | 18 | 1008.5 |
| 20260501233541 | 32 | 217 | 3.2 | 12.9 | 0.00 | 0.00 | 0.00 | 19 | 1008.4 |
| 20260501233046 | 32 | 231 | 6.4 | 12.9 | 0.00 | 0.00 | 0.00 | 19 | 1008.4 |
| 20260501232542 | 32 | 218 | 4.8 | 12.9 | 0.00 | 0.00 | 0.00 | 19 | 1008.4 |
| 20260501232042 | 31 | 250 | 4.8 | 11.3 | 0.00 | 0.00 | 0.00 | 19 | 1008.5 |
| 20260501231558 | 32 | 184 | 3.2 | 12.9 | 0.00 | 0.00 | 0.00 | 19 | 1008.6 |
| 20260501231043 | 32 | 283 | 3.2 | 12.9 | 0.00 | 0.00 | 0.00 | 19 | 1008.6 |
| 20260501230539 | 32 | 288 | 3.2 | 12.9 | 0.00 | 0.00 | 0.00 | 20 | 1008.6 |
| 20260501230055 | 32 | 260 | 6.4 | 16.1 | 0.00 | 0.00 | 0.00 | 20 | 1008.7 |
| 20260501225545 | 31 | 244 | 6.4 | 16.1 | 0.00 | 0.00 | 0.00 | 20 | 1008.7 |
| 20260501225040 | 31 | 190 | 4.8 | 16.1 | 0.00 | 0.00 | 0.00 | 20 | 1008.8 |
| 20260501224600 | 31 | 308 | 3.2 | 14.5 | 0.00 | 0.00 | 0.00 | 20 | 1008.8 |
| 20260501224041 | 31 | 292 | 4.8 | 12.9 | 0.00 | 0.00 | 0.00 | 20 | 1009.0 |
| 20260501223541 | 32 | 263 | 3.2 | 12.9 | 0.00 | 0.00 | 0.00 | 19 | 1009.1 |
| 20260501223051 | 32 | 314 | 3.2 | 11.3 | 0.00 | 0.00 | 0.00 | 20 | 1009.0 |
| 20260501222542 | 31 | 204 | 1.6 | 8.0 | 0.00 | 0.00 | 0.00 | 20 | 1009.1 |
| 20260501222042 | 31 | 265 | 0.0 | 8.0 | 0.00 | 0.00 | 0.00 | 20 | 1009.2 |
| 20260501221604 | 31 | 241 | 3.2 | 12.9 | 0.00 | 0.00 | 0.00 | 20 | 1009.4 |
| 20260501221041 | 32 | 0 | 0.0 | 12.9 | 0.00 | 0.00 | 0.00 | 20 | 1009.4 |
| 20260501220541 | 31 | 210 | 4.8 | 17.7 | 0.00 | 0.00 | 0.00 | 21 | 1009.4 |
| 20260501220050 | 31 | 113 | 3.2 | 17.7 | 0.00 | 0.00 | 0.00 | 22 | 1009.5 |
| 20260501215541 | 31 | 200 | 8.0 | 17.7 | 0.00 | 0.00 | 0.00 | 21 | 1009.7 |
| 20260501215039 | 31 | 184 | 3.2 | 17.7 | 0.00 | 0.00 | 0.00 | 20 | 1009.8 |
| 20260501214549 | 31 | 314 | 8.0 | 17.7 | 0.00 | 0.00 | 0.00 | 18 | 1009.8 |
| 20260501214042 | 31 | 285 | 4.8 | 17.7 | 0.00 | 0.00 | 0.00 | 20 | 1009.9 |
| 20260501213541 | 30 | 207 | 4.8 | 14.5 | 0.00 | 0.00 | 0.00 | 20 | 1009.9 |
| 20260501213052 | 30 | 219 | 4.8 | 14.5 | 0.00 | 0.00 | 0.00 | 20 | 1010.0 |
| 20260501212541 | 31 | 244 | 3.2 | 14.5 | 0.00 | 0.00 | 0.00 | 20 | 1010.2 |
| 20260501212041 | 30 | 0 | 1.6 | 14.5 | 0.00 | 0.00 | 0.00 | 20 | 1010.1 |
| 20260501211606 | 30 | 142 | 1.6 | 16.1 | 0.00 | 0.00 | 0.00 | 20 | 1010.3 |
| 20260501211040 | 30 | 161 | 4.8 | 16.1 | 0.00 | 0.00 | 0.00 | 21 | 1010.4 |
| 20260501210539 | 30 | 183 | 1.6 | 9.7 | 0.00 | 0.00 | 0.00 | 20 | 1010.6 |
| 20260501210049 | 30 | 283 | 3.2 | 14.5 | 0.00 | 0.00 | 0.00 | 20 | 1010.6 |
| 20260501205541 | 30 | 288 | 4.8 | 14.5 | 0.00 | 0.00 | 0.00 | 20 | 1010.7 |
| 20260501205041 | 30 | 9 | 6.4 | 12.9 | 0.00 | 0.00 | 0.00 | 21 | 1010.7 |
| 20260501204549 | 30 | 256 | 4.8 | 12.9 | 0.00 | 0.00 | 0.00 | 21 | 1010.7 |
| 20260501204041 | 30 | 259 | 3.2 | 16.1 | 0.00 | 0.00 | 0.00 | 22 | 1010.9 |
| 20260501203541 | 30 | 294 | 1.6 | 16.1 | 0.00 | 0.00 | 0.00 | 22 | 1010.9 |
| 20260501203044 | 29 | 168 | 4.8 | 14.5 | 0.00 | 0.00 | 0.00 | 23 | 1010.9 |
| 20260501202541 | 30 | 231 | 4.8 | 14.5 | 0.00 | 0.00 | 0.00 | 24 | 1011.0 |
| 20260501202041 | 29 | 245 | 1.6 | 17.7 | 0.00 | 0.00 | 0.00 | 25 | 1010.9 |
| 20260501201545 | 30 | 244 | 6.4 | 17.7 | 0.00 | 0.00 | 0.00 | 26 | 1011.1 |
| 20260501201039 | 30 | 269 | 4.8 | 17.7 | 0.00 | 0.00 | 0.00 | 25 | 1010.9 |
| 20260501200541 | 30 | 257 | 3.2 | 14.5 | 0.00 | 0.00 | 0.00 | 25 | 1011.1 |
| 20260501200046 | 30 | 302 | 4.8 | 14.5 | 0.00 | 0.00 | 0.00 | 26 | 1011.0 |
| 20260501195541 | 29 | 240 | 1.6 | 14.5 | 0.00 | 0.00 | 0.00 | 25 | 1011.1 |
| 20260501195044 | 29 | 295 | 1.6 | 12.9 | 0.00 | 0.00 | 0.00 | 26 | 1011.2 |
| 20260501194551 | 29 | 306 | 0.0 | 12.9 | 0.00 | 0.00 | 0.00 | 26 | 1011.3 |
| 20260501194040 | 28 | 285 | 4.8 | 12.9 | 0.00 | 0.00 | 0.00 | 27 | 1011.4 |
| 20260501193541 | 29 | 301 | 6.4 | 11.3 | 0.00 | 0.00 | 0.00 | 26 | 1011.6 |
| 20260501193046 | 29 | 313 | 3.2 | 12.9 | 0.00 | 0.00 | 0.00 | 27 | 1011.4 |
| 20260501192542 | 29 | 168 | 3.2 | 16.1 | 0.00 | 0.00 | 0.00 | 27 | 1011.6 |
| 20260501192039 | 28 | 250 | 4.8 | 16.1 | 0.00 | 0.00 | 0.00 | 27 | 1011.7 |
| 20260501191548 | 28 | 136 | 6.4 | 16.1 | 0.00 | 0.00 | 0.00 | 27 | 1011.9 |
| 20260501191041 | 28 | 279 | 3.2 | 12.9 | 0.00 | 0.00 | 0.00 | 27 | 1011.9 |
| 20260501190540 | 28 | 232 | 4.8 | 12.9 | 0.00 | 0.00 | 0.00 | 28 | 1011.9 |
| 20260501190047 | 28 | 264 | 3.2 | 12.9 | 0.00 | 0.00 | 0.00 | 27 | 1011.9 |
| 20260501185541 | 28 | 284 | 3.2 | 11.3 | 0.00 | 0.00 | 0.00 | 27 | 1012.1 |
| 20260501185044 | 28 | 203 | 1.6 | 14.5 | 0.00 | 0.00 | 0.00 | 28 | 1012.0 |
| 20260501184543 | 27 | 134 | 4.8 | 14.5 | 0.00 | 0.00 | 0.00 | 28 | 1012.2 |
| 20260501184042 | 28 | 216 | 8.0 | 14.5 | 0.00 | 0.00 | 0.00 | 27 | 1012.3 |
| 20260501183539 | 28 | 277 | 0.0 | 11.3 | 0.00 | 0.00 | 0.00 | 29 | 1012.3 |
| 20260501183050 | 27 | 110 | 4.8 | 11.3 | 0.00 | 0.00 | 0.00 | 28 | 1012.3 |
| 20260501182540 | 28 | 229 | 3.2 | 11.3 | 0.00 | 0.00 | 0.00 | 28 | 1012.4 |
| 20260501182041 | 28 | 121 | 4.8 | 11.3 | 0.00 | 0.00 | 0.00 | 28 | 1012.5 |
| 20260501181551 | 28 | 186 | 0.0 | 8.0 | 0.00 | 0.00 | 0.00 | 28 | 1012.5 |
| 20260501181040 | 27 | 0 | 0.0 | 11.3 | 0.00 | 0.00 | 0.00 | 29 | 1012.7 |